Location: Claflin County Park
(44.8478°N, 87.5507°W)
Time: 23:09:55
(UTC+00:00)

Cosmos 2369 - Pass Details

Date: 10 December 2025
Orbit: 839 x 854 km, 71.0° (Epoch: 19 January)

Event Time Altitude Azimuth Distance (km) Brightness Sun altitude
Exits shadow 10:39:33 58° 202° (SSW) 980 3.8 -27.0°
Drops below altitude 10° 10:44:16 10° 167° (SSE) 2,457 6.3 -26.1°
Sets 10:46:43 0° 165° (SSE) 3,386 7.1 -25.7°
